Sheldon, IA

9:47 PM CDT on September 26, 2016 (GMT -0500)
Sheldon Municipal

Weather History for KSHL - November, 2012

Change the Weather History Date:

Sunday, November 25, 2012

  Actual Average Record
Temperature  
Mean Temperature 30 °F -  
Max Temperature 39 °F 38 °F 67 °F (1960)
Min Temperature 21 °F 19 °F -11 °F (1996)
Degree Days  
Heating Degree Days 35    
Moisture  
Dew Point 23 °F    
Average Humidity 73    
Maximum Humidity 93    
Minimum Humidity 49    
Precipitation  
Precipitation 0.00 in - - ()
Sea Level Pressure  
Sea Level Pressure 29.99 in    
Wind  
Wind Speed 8 mph (NNW)    
Max Wind Speed 13 mph    
Max Gust Speed 15 mph    
Visibility 10 miles    
Events      
Averages and records for this station are not official NWS values.
T = Trace of Precipitation, MM = Missing Value Source: NWS Daily Summary

Daily Weather History Graph

Daily Weather History Graph

Search for Another Location

Airport or City:

Trip Planner

Search our weather history database for the weather conditions in past years. The results will help you decide how hot, cold, wet, or windy it might be!

Date:

Astronomy

Nov. 25, 2012 Rise Set
Actual Time 7:29 AM CST 4:51 PM CST
Civil Twilight 6:57 AM CST 5:22 PM CST
Nautical Twilight 6:22 AM CST 5:58 PM CST
Astronomical Twilight 5:48 AM CST 6:32 PM CST
Moon 3:11 PM CST (11/25) 4:41 AM CST (11/25)
Length of Visible Light 10h 25m
Length of Day
9h 22m
Waxing Gibbous, 93% of the Moon is Illuminated
Nov 25
Waxing Gibbous
Nov 28
Full
Dec 6
Last Quarter
Dec 13
New
Dec 19
First Quarter

Hourly Weather History & Observations

Time (CST) Temp. Windchill Dew Point Humidity Pressure Visibility Wind Dir Wind Speed Gust Speed Precip Events Conditions
12:15 AM 32.0 °F 25.6 °F 21.2 °F 64% 29.84 in 10.0 mi NW 6.9 mph - N/A   Clear
12:35 AM 32.0 °F 25.6 °F 21.2 °F 64% 29.84 in 10.0 mi NW 6.9 mph - N/A   Clear
12:55 AM 32.0 °F 24.2 °F 21.2 °F 64% 29.83 in 10.0 mi NW 9.2 mph - N/A   Clear
1:15 AM 28.4 °F 21.2 °F 19.4 °F 69% 29.84 in 10.0 mi NW 6.9 mph - N/A   Clear
1:35 AM 30.2 °F 22.6 °F 21.2 °F 69% 29.83 in 10.0 mi NW 8.1 mph - N/A   Clear
1:55 AM 26.6 °F 19.1 °F 19.4 °F 74% 29.85 in 10.0 mi NW 6.9 mph - N/A   Clear
2:35 AM 26.6 °F 20.0 °F 19.4 °F 74% 29.87 in 10.0 mi WSW 5.8 mph - N/A   Clear
2:55 AM 24.8 °F 16.1 °F 19.4 °F 80% 29.88 in 10.0 mi WNW 8.1 mph - N/A   Clear
3:15 AM 26.6 °F 19.1 °F 21.2 °F 80% 29.88 in 10.0 mi NW 6.9 mph - N/A   Clear
3:35 AM 24.8 °F - 19.4 °F 80% 29.89 in 10.0 mi Calm Calm - N/A   Clear
3:55 AM 24.8 °F 16.1 °F 19.4 °F 80% 29.89 in 10.0 mi NW 8.1 mph - N/A   Clear
4:15 AM 24.8 °F 16.9 °F 19.4 °F 80% 29.89 in 10.0 mi NNW 6.9 mph - N/A   Clear
4:35 AM 21.2 °F 13.6 °F 17.6 °F 86% 29.91 in 10.0 mi West 5.8 mph - N/A   Clear
4:55 AM 24.8 °F 17.9 °F 21.2 °F 86% 29.91 in 10.0 mi WNW 5.8 mph - N/A   Partly Cloudy
5:15 AM 23.0 °F 15.8 °F 21.2 °F 93% 29.93 in 10.0 mi WNW 5.8 mph - N/A   Mostly Cloudy
5:35 AM 26.6 °F 18.2 °F 23.0 °F 86% 29.93 in 10.0 mi NW 8.1 mph - N/A   Overcast
5:55 AM 26.6 °F 20.0 °F 23.0 °F 86% 29.93 in 10.0 mi NW 5.8 mph - N/A   Overcast
6:15 AM 28.4 °F 22.2 °F 24.8 °F 86% 29.94 in 10.0 mi NW 5.8 mph - N/A   Overcast
6:35 AM 28.4 °F 21.2 °F 24.8 °F 86% 29.94 in 10.0 mi NW 6.9 mph - N/A   Overcast
6:55 AM 28.4 °F 23.3 °F 26.6 °F 93% 29.95 in 10.0 mi NW 4.6 mph - N/A   Overcast
7:15 AM 30.2 °F 23.4 °F 26.6 °F 86% 29.95 in 10.0 mi NW 6.9 mph - N/A   Overcast
7:35 AM 30.2 °F 22.6 °F 26.6 °F 86% 29.96 in 9.0 mi NNW 8.1 mph - N/A   Overcast
7:55 AM 30.2 °F 22.6 °F 26.6 °F 86% 29.96 in 9.0 mi North 8.1 mph - N/A   Overcast
8:15 AM 30.2 °F 22.6 °F 26.6 °F 86% 29.97 in 9.0 mi North 8.1 mph - N/A   Overcast
8:35 AM 30.2 °F 21.9 °F 26.6 °F 86% 29.99 in 9.0 mi North 9.2 mph - N/A   Overcast
8:55 AM 30.2 °F 21.9 °F 26.6 °F 86% 30.00 in 10.0 mi NNW 9.2 mph - N/A   Overcast
9:15 AM 30.2 °F 21.9 °F 24.8 °F 80% 30.00 in 10.0 mi North 9.2 mph 15.0 mph N/A   Overcast
9:35 AM 30.2 °F 21.9 °F 26.6 °F 86% 30.01 in 10.0 mi NNW 9.2 mph - N/A   Overcast
9:55 AM 32.0 °F 24.8 °F 24.8 °F 75% 30.01 in 10.0 mi NNW 8.1 mph 13.8 mph N/A   Overcast
10:15 AM 32.0 °F 24.2 °F 24.8 °F 75% 30.02 in 10.0 mi NNW 9.2 mph 15.0 mph N/A   Overcast
10:35 AM 33.8 °F 26.4 °F 24.8 °F 70% 30.02 in 10.0 mi NNW 9.2 mph - N/A   Overcast
10:55 AM 33.8 °F 27.0 °F 26.6 °F 75% 30.01 in 10.0 mi NNW 8.1 mph - N/A   Mostly Cloudy
11:15 AM 33.8 °F 25.8 °F 24.8 °F 70% 30.00 in 9.0 mi NW 10.4 mph - N/A   Scattered Clouds
11:35 AM 33.8 °F 26.4 °F 24.8 °F 70% 30.01 in 10.0 mi NW 9.2 mph - N/A   Partly Cloudy
11:55 AM 33.8 °F 26.4 °F 24.8 °F 70% 30.00 in 10.0 mi WNW 9.2 mph - N/A   Clear
12:15 PM 35.6 °F 28.0 °F 24.8 °F 65% 29.99 in 10.0 mi NW 10.4 mph - N/A   Clear
12:35 PM 33.8 °F 24.8 °F 24.8 °F 70% 29.99 in 10.0 mi NW 12.7 mph - N/A   Clear
12:55 PM 35.6 °F 28.0 °F 24.8 °F 65% 29.99 in 10.0 mi NW 10.4 mph - N/A   Clear
1:15 PM 37.4 °F 29.8 °F 23.0 °F 56% 29.98 in 10.0 mi NW 11.5 mph - N/A   Clear
1:35 PM 37.4 °F 29.3 °F 23.0 °F 56% 29.98 in 10.0 mi NW 12.7 mph - N/A   Clear
1:55 PM 39.2 °F 32.0 °F 23.0 °F 52% 29.99 in 10.0 mi NW 11.5 mph - N/A   Clear
2:15 PM 39.2 °F 31.6 °F 21.2 °F 49% 29.99 in 10.0 mi NW 12.7 mph - N/A   Partly Cloudy
2:35 PM 39.2 °F 32.5 °F 21.2 °F 49% 29.98 in 10.0 mi NW 10.4 mph - N/A   Partly Cloudy
2:55 PM 37.4 °F 29.8 °F 21.2 °F 52% 29.98 in 10.0 mi NNW 11.5 mph - N/A   Partly Cloudy
3:15 PM 37.4 °F 29.8 °F 21.2 °F 52% 29.99 in 10.0 mi NW 11.5 mph - N/A   Scattered Clouds
3:35 PM 37.4 °F 30.3 °F 23.0 °F 56% 30.00 in 10.0 mi NNW 10.4 mph - N/A   Partly Cloudy
3:55 PM 37.4 °F 29.3 °F 23.0 °F 56% 30.00 in 10.0 mi NNW 12.7 mph - N/A   Clear
4:15 PM 35.6 °F 27.1 °F 21.2 °F 56% 30.00 in 10.0 mi North 12.7 mph - N/A   Scattered Clouds
4:35 PM 35.6 °F 27.5 °F 21.2 °F 56% 30.01 in 10.0 mi North 11.5 mph - N/A   Mostly Cloudy
4:55 PM 33.8 °F 26.4 °F 21.2 °F 60% 30.01 in 10.0 mi North 9.2 mph - N/A   Scattered Clouds
5:15 PM 32.0 °F 24.8 °F 21.2 °F 64% 30.01 in 10.0 mi North 8.1 mph - N/A   Clear
5:35 PM 32.0 °F 26.4 °F 21.2 °F 64% 30.02 in 10.0 mi NNW 5.8 mph - N/A   Scattered Clouds
5:55 PM 30.2 °F 25.4 °F 21.2 °F 69% 30.02 in 10.0 mi NNW 4.6 mph - N/A   Scattered Clouds
6:15 PM 30.2 °F 24.3 °F 21.2 °F 69% 30.03 in 10.0 mi NNW 5.8 mph - N/A   Scattered Clouds
6:35 PM 30.2 °F 22.6 °F 23.0 °F 75% 30.04 in 10.0 mi NNW 8.1 mph - N/A   Scattered Clouds
6:55 PM 30.2 °F 24.3 °F 23.0 °F 75% 30.04 in 10.0 mi NNW 5.8 mph - N/A   Mostly Cloudy
7:15 PM 32.0 °F 25.6 °F 23.0 °F 69% 30.06 in 10.0 mi NNW 6.9 mph - N/A   Mostly Cloudy
7:35 PM 32.0 °F 25.6 °F 23.0 °F 69% 30.07 in 10.0 mi NNW 6.9 mph - N/A   Overcast
7:55 PM 32.0 °F 24.8 °F 23.0 °F 69% 30.08 in 10.0 mi NNW 8.1 mph - N/A   Overcast
8:15 PM 30.2 °F 22.6 °F 23.0 °F 75% 30.09 in 10.0 mi North 8.1 mph - N/A   Overcast
8:35 PM 30.2 °F 25.4 °F 23.0 °F 75% 30.09 in 10.0 mi North 4.6 mph - N/A   Overcast
8:55 PM 30.2 °F 26.7 °F 23.0 °F 75% 30.10 in 10.0 mi North 3.5 mph - N/A   Overcast
9:15 PM 28.4 °F 23.3 °F 21.2 °F 74% 30.11 in 10.0 mi NNW 4.6 mph - N/A   Overcast
9:35 PM 28.4 °F 23.3 °F 23.0 °F 80% 30.11 in 10.0 mi NNW 4.6 mph - N/A   Overcast
9:55 PM 28.4 °F 21.2 °F 23.0 °F 80% 30.12 in 10.0 mi NNW 6.9 mph - N/A   Overcast
10:15 PM 28.4 °F 22.2 °F 21.2 °F 74% 30.13 in 10.0 mi NNW 5.8 mph - N/A   Overcast
10:35 PM 28.4 °F 23.3 °F 23.0 °F 80% 30.14 in 10.0 mi NNW 4.6 mph - N/A   Overcast
10:55 PM 28.4 °F 21.2 °F 23.0 °F 80% 30.14 in 10.0 mi NNW 6.9 mph - N/A   Overcast
11:15 PM 28.4 °F 22.2 °F 23.0 °F 80% 30.15 in 10.0 mi NNW 5.8 mph - N/A   Overcast
11:35 PM 28.4 °F 22.2 °F 23.0 °F 80% 30.16 in 10.0 mi NNW 5.8 mph - N/A   Overcast
11:55 PM 28.4 °F 21.2 °F 23.0 °F 80% 30.17 in 10.0 mi North 6.9 mph - N/A   Overcast